Location: ????????
(37.6846°N, 24.0673°E)
Time: 14:55:16
(UTC+00:00)

Meteor 1-11 Rocket - Pass Details

Date: 14 July 2020
Orbit: 831 x 915 km, 81.2° (Epoch: 03 August)

Event Time Altitude Azimuth Distance (km) Brightness Sun altitude
Exits shadow 00:21:44 49° 148° (SSE) 1,063 4.0 -25.1°
Maximum altitude 00:22:58 63° 95° (E) 928 3.9 -25.0°
Drops below altitude 10° 00:28:25 10° 16° (NNE) 2,446 7.1 -24.4°
Sets 00:30:51 0° 13° (NNE) 3,385 8.0 -24.2°
